Regional Weather Roundup
Issued by NWS

Home | Current Version | Previous Version | Graphics & Text | Print | Product List | Glossary On
Versions: 1 2 3 4 5 6 7 8 9 10 11 12 13 14 15 16 17 18 19 20 21 22 23 24 25 26 27 28 29 30 31 32 33 34 35 36 37 38 39 40 41 42 43 44 45 46 47 48 49 50
685
ASUS45 KTFX 262010
RWRMT
MONTANA REGIONAL WEATHER ROUNDUP
NATIONAL WEATHER SERVICE GREAT FALLS MT
100 PM MST SUN FEB 26 2017

NOTE: "FAIR" INDICATES FEW OR NO CLOUDS BELOW 12000 FEET WITH NO
SIGNIFICANT WEATHER AND/OR OBSTRUCTIONS TO VISIBILITY.

MTZ001>007-043-262100-
WEST OF THE DIVIDE

CITY           SKY/WX    TMP DP  RH WIND       PRES   REMARKS
KALISPELL      SNOW      22  19  89 NE22      29.69F VSB 1/2 WCI   6
MISSOULA       CLOUDY    31  23  72 E13       29.69F WCI  21
BUTTE          CLOUDY    25  11  55 S12       29.63F WCI  14
MULLAN PASS    SNOW      19  18  95 CALM      29.53F VSB 1/2
ANACONDA         N/A     27  10  50 S10       29.65F WCI  17
DEER LODGE       N/A     27  19  74 S6        29.68F WCI  20
EUREKA           N/A     27  21  80 W7        29.72F WCI  19
HAMILTON         N/A     34  18  51 S13       29.66F WCI  25
LIBBY            N/A     30  25  80 N3        29.67F
PLAINS           N/A     34  24  67 CALM      29.72
RONAN            N/A     30  23  75 S2        29.74F
THOMPSON FALLS   N/A     30  26  85 NE2       29.76F
$$

MTZ008-052>055-262100-
SOUTHWEST MONTANA

CITY           SKY/WX    TMP DP  RH WIND       PRES   REMARKS
BOZEMAN        CLOUDY    29  16  58 NE7       29.69F WCI  22
DILLON         CLOUDY    29   6  38 SW15      29.65F WCI  18
W YELLOWSTONE  SNOW      16  10  79 SW18G24   29.70F VSB 1/2 WCI  -1
ENNIS          SUNNY     27   7  43 S20G30    29.72F WCI  13
THREE FORKS      N/A     30  30 100 SW15      29.72F WCI  19
TWIN BRIDGES     N/A     28  11  49 E12       29.70  WCI  18
$$

MTZ009-010-012-014-046-048-049-054-262100-
EAST SLOPES AND CENTRAL MONTANA

CITY           SKY/WX    TMP DP  RH WIND       PRES   REMARKS
CUT BANK       CLOUDY    18   9  68 N17       29.77F WCI   3
GREAT FALLS    LGT SNOW  22  15  75 N15       29.74F WCI   9
MALMSTROM AFB  FLURRIES  21  19  93 N15       29.76S WCI   8
HELENA         CLOUDY    33  20  58 NW3       29.67F
AUGUSTA        LGT SNOW  17  12  82 N20       29.72F FOG     WCI   0
BOWMANS CRNR   LGT SNOW  17  13  86 N15       29.70F WCI   2
CHOTEAU        HAZE      19  16  86 N15G21    29.77F VSB 3/4 WCI   5
CONRAD           N/A     21  15  78 NW15      29.81F WCI   8
POWER          LGT SNOW  20  14  77 N18       29.74F WCI   4
RAYNESFORD     LGT SNOW  23  19  87 N9        29.70F FOG     WCI  13
ULM            LGT SNOW  22  19  89 MISG      29.75S
$$

MTZ011-013-016-021-045-047-050-051-262100-
NORTH CENTRAL MONTANA

CITY           SKY/WX    TMP DP  RH WIND       PRES   REMARKS
HAVRE          FLURRIES  24  15  68 N12       29.82S WCI  13
LEWISTOWN      FLURRIES  25  18  74 N5        29.70F
N BAR RANCH      N/A     27  12  54 N6        29.70F WCI  20
CHINOOK          N/A     25  12  58 NW8       29.82F WCI  16
DENTON         PTSUNNY   24  17  73 N5        29.70F
FORT BENTON      N/A     25  18  74 MISG      29.81S
GEYSER         LGT SNOW  22  19  89 N14       29.69F WCI   9
GRASS RANGE    FLURRIES  26  20  78 NE7       29.68F WCI  18
JUDITH GAP     LGT SNOW  21  17  86 N9        29.65F FOG     WCI  10
ROY              N/A     26  17  69 MISG      29.71F
STANFORD       LGT SNOW  22  20  92 NE9       29.67F FOG     WCI  12
WINIFRED       FLURRIES  24  18  77 N6        29.72F WCI  17
$$

MTZ017>020-022>027-061-062-262100-
NORTHEAST MONTANA

CITY           SKY/WX    TMP DP  RH WIND       PRES   REMARKS
GLASGOW        LGT SNOW  24  18  77 NW12      29.78R WCI  13
JORDAN           N/A     29  15  56 NW14      29.76F WCI  18
SIDNEY         MOSUNNY   27  19  72 N13       29.77R WCI  16
WOLF POINT     CLOUDY    28  17  63 NW15      29.78S WCI  16
PLENTYWOOD       N/A     21  16  79 W7        29.75S WCI  13
POPLAR           N/A     25  16  68 W6        29.78F WCI  18
SCOBEY           N/A     23  11  60 SW10      29.74  WCI  12
$$

MTZ028>42-056>058-262100-
SOUTHCENTRAL AND SOUTHEAST MONTANA

CITY           SKY/WX    TMP DP  RH WIND       PRES   REMARKS
BAKER          CLOUDY    31  21  66 W22G28    29.70S WCI  18
BILLINGS       MOSUNNY   34  10  37 SW3       29.71F
LIVINGSTON     MOSUNNY   30  11  45 SW21G31   29.65F WCI  17
MILES CITY     CLOUDY    34  17  50 NW18      29.74F WCI  23
BIG TIMBER     SUNNY     30  12  47 W20       29.68F WCI  18
FORSYTH          N/A     34  18  51 W10       29.75S WCI  26
HARLOWTON      PTSUNNY   32  13  45 W18       29.65F WCI  20
LAUREL           N/A     34   8  33 S3        29.72F
$$

REGIONAL REPORTS...DAKOTAS

CITY           SKY/WX    TMP DP  RH WIND       PRES   REMARKS
WILLISTON      SUNNY     22  14  71 NW6       29.77S WCI  14
MINOT          SUNNY     21   8  57 W3        29.77S
DICKINSON      CLOUDY    29  22  75 NW17      29.67S WCI  17
BEACH            N/A    N/A N/A N/A MISG        N/A
CROSBY           N/A     25  16  68 SW13G18   29.76S WCI  13
TIOGA            N/A     18  16  93 W8        29.76S WCI   7
WATFORD CITY   CLOUDY    21  16  79 N5        29.75F
BISMARCK       CLOUDY    22  15  75 E5        29.79S
GRAND FORKS    MOSUNNY   19   4  51 W9        29.86R WCI   8
FARGO          SUNNY     20   8  60 CALM      29.88S
BUFFALO SD       N/A     37  16  42 W24       29.64F WCI  26
RAPID CITY     CLOUDY    39  15  37 N9        29.75F
$$

REGIONAL REPORTS...WYOMING/IDAHO/WASHINGTON

CITY           SKY/WX    TMP DP  RH WIND       PRES   REMARKS
GILLETTE       CLOUDY    32   9  38 SW10      29.71F WCI  24
SHERIDAN       SUNNY     34   9  35 SE14G21   29.71F WCI  25
BUFFALO WY     SUNNY     28   8  43 S10       29.70F WCI  19
CODY           CLOUDY    32   1  26 VRB7      29.70F WCI  26
YELLOWSTONE LA   N/A     15   5  64 W8        29.67F WCI   4
IDAHO FALLS    PTSUNNY   24  16  71 N6        29.82F WCI  17
SALMON         CLOUDY    30  12  47 SW15      29.69F WCI  19
BOISE          CLOUDY    36  18  48 SE16      29.77F WCI  26
SPOKANE        LGT SNOW  31  27  85 E6        29.68F VSB 3/4 WCI  25
$$

REGIONAL REPORTS...ALBERTA

CITY           SKY/WX    TMP DP  RH WIND       PRES   REMARKS
EDMONTON       SUNNY      7  -2  66 NW9       29.92F WCI  -7
CALGARY        PTSUNNY   14   3  62 N20G26    29.81F WCI  -3
LETHBRIDGE     PTSUNNY   19   5  53 N12G21    29.84F WCI   7
MEDICINE HAT   SNOWSHWR  23  16  74 NW13      29.83F WCI  11
WATERTON GATE    N/A     16   7  67 NE8         N/A  WCI   5
CARDSTON         N/A     21   7  53 NE7         N/A  WCI  13
MILK RIVER       N/A     19  10  68 N13G20      N/A  WCI   7
$$

REGIONAL REPORTS...SASKATCHEWAN

CITY           SKY/WX    TMP DP  RH WIND       PRES   REMARKS
SWIFT CURRENT  PTSUNNY   19  10  68 NW15G21   29.72F WCI   5
REGINA         PTSUNNY   23   9  54 NW16      29.73S WCI  10
SASKATOON      SNOW      14  10  85 N17G26    29.76R VSB 1/2 WCI  -3
VAL MARIE        N/A     23  12  63 N14         N/A  WCI  11
ROCKGLEN         N/A     18  10  73 N14         N/A  WCI   4
ASSINIBOIA       N/A      7  -6  56 N17         N/A  WCI -12
$$




USA.gov is the U.S. government's official web portal to all federal, state and local government web resources and services.